STARLINK-5197 (54097 NORAD) Tracking and Keplerian Element Data

This shows tracking and keplerian element data for the satellite.

Feedback or suggestion? Click here.




ElementValue
Catalog54097
NameSTARLINK-5197
Epoch Orbit549
Epoch Day325.33334491
Epoch Year2022
RAAN350.8357
Inclination53.2138
Eccentricity0.0003875
Argument of Perigee5.9167
Mean Anonmoly7.0029
Mean Motion15.73164589
Decay Rate0.00028109
L11 54097U 22136AY 22325.33334491 .00028109 00000+0 20428-3 0 9991
L22 54097 53.2138 350.8357 0003875 5.9167 7.0029 15.73164589 5496



Live tracking and technical data element details for STARLINK-5197 (NORAD 54097). STARLINK-5197 can be tracked NOW for your location showing map with azimuth and elevation plus other details from your city location.







IsCatalogInMostPopularTable: catalog: 54097, numindb: 1
Update: records affected: 1



GetName: 54097 STARLINK-5197

Hit Count: updated at: Mon, 28 Nov 2022 21:26:35 GMT